^^
Saratoga-Weather Station Historical Data
Daily Summary for January 12, 2020 Units:  English    Metric   Both
Daily Weekly Monthly Yearly Custom
  High: Low: Average:
Temperature: 96.6 °F 69.3 °F 79.9 °F
Dew Point: 70.2 °F 60.4 °F 64.8 °F
Humidity: 91% 35% 63%
Wind Speed: 14.1mph 0mph 1.2mph
Wind Gust: 15mph - -
Wind- - SE
Pressure: 29.9 in 29.8 in -
Precipitation: 0.09 in    
Historical Graphs
 
 
Tabular Data for January 12, 2020
Time Temperature Dew Point Pressure Wind Wind Speed Wind Gust Humidity Rainfall Rate (Hourly) solar
00:03 78.8 °F 64.2 °F 29.9 in East 0.9 mph 2 mph 61% 0 in 0 W/m2
00:08 78.3 °F 64.2 °F 29.9 in Calm   2 mph 62% 0 in 0 W/m2
00:13 77.9 °F 63.9 °F 29.9 in Calm   1 mph 62% 0 in 0 W/m2
00:18 77.4 °F 63.9 °F 29.9 in Calm   2 mph 63% 0 in 0 W/m2
00:23 77 °F 63.9 °F 29.9 in Calm     64% 0 in 0 W/m2
00:28 76.6 °F 63.5 °F 29.9 in Calm   2 mph 64% 0 in 0 W/m2
00:33 76.3 °F 63.7 °F 29.9 in Calm     65% 0 in 0 W/m2
00:38 75.9 °F 63.3 °F 29.9 in Calm     65% 0 in 0 W/m2
00:43 75.7 °F 63.1 °F 29.9 in Calm     65% 0 in 0 W/m2
00:48 75.6 °F 63 °F 29.9 in Calm     65% 0 in 0 W/m2
00:53 75.4 °F 63.1 °F 29.9 in Calm     66% 0 in 0 W/m2
00:58 75 °F 63 °F 29.9 in Calm     66% 0 in 0 W/m2
01:03 74.8 °F 62.8 °F 29.9 in Calm     66% 0 in 0 W/m2
01:08 74.8 °F 62.8 °F 29.9 in Calm     66% 0 in 0 W/m2
01:13 74.7 °F 63 °F 29.9 in Calm     67% 0 in 0 W/m2
01:18 74.5 °F 62.8 °F 29.9 in Calm     67% 0 in 0 W/m2
01:23 74.3 °F 63.1 °F 29.9 in Calm     68% 0 in 0 W/m2
01:28 74.1 °F 63 °F 29.9 in Calm     68% 0 in 0 W/m2
01:33 73.9 °F 62.8 °F 29.9 in Calm     68% 0 in 0 W/m2
01:38 73.8 °F 62.6 °F 29.9 in Calm     68% 0 in 0 W/m2
01:43 73.6 °F 62.8 °F 29.9 in Calm     69% 0 in 0 W/m2
01:48 73.4 °F 62.6 °F 29.9 in Calm     69% 0 in 0 W/m2
01:53 73.2 °F 62.8 °F 29.9 in Calm   1 mph 70% 0 in 0 W/m2
01:58 73.2 °F 62.8 °F 29.9 in ESE 0.9 mph 1 mph 70% 0 in 0 W/m2
02:03 73 °F 62.6 °F 29.9 in Calm   1 mph 70% 0 in 0 W/m2
02:08 72.9 °F 62.4 °F 29.9 in Calm     70% 0 in 0 W/m2
02:13 72.9 °F 63 °F 29.9 in ESE 0.9 mph 1 mph 71% 0 in 0 W/m2
02:18 72.7 °F 62.8 °F 29.9 in ESE 0.9 mph 2 mph 71% 0 in 0 W/m2
02:23 72.5 °F 62.6 °F 29.9 in Calm     71% 0 in 0 W/m2
02:28 72.5 °F 63 °F 29.9 in Calm   2 mph 72% 0 in 0 W/m2
02:33 72.3 °F 62.8 °F 29.9 in Calm     72% 0 in 0 W/m2
02:38 72.5 °F 63 °F 29.9 in Calm     72% 0 in 0 W/m2
02:43 72.5 °F 62.6 °F 29.9 in Calm     71% 0 in 0 W/m2
02:48 72.3 °F 62.8 °F 29.9 in Calm     72% 0 in 0 W/m2
02:53 72.3 °F 62.8 °F 29.9 in Calm     72% 0 in 0 W/m2
02:58 72.1 °F 62.6 °F 29.9 in Calm     72% 0 in 0 W/m2
03:03 72.1 °F 62.6 °F 29.9 in Calm     72% 0 in 0 W/m2
03:08 72.1 °F 63 °F 29.9 in Calm     73% 0 in 0 W/m2
03:13 72 °F 62.8 °F 29.9 in Calm     73% 0 in 0 W/m2
03:18 71.8 °F 63 °F 29.9 in Calm     74% 0 in 0 W/m2
03:23 71.8 °F 63 °F 29.9 in Calm     74% 0 in 0 W/m2
03:28 71.8 °F 63 °F 29.9 in Calm     74% 0 in 0 W/m2
03:33 71.6 °F 63 °F 29.9 in Calm     74% 0 in 0 W/m2
03:38 71.4 °F 62.8 °F 29.9 in Calm     74% 0 in 0 W/m2
03:43 71.2 °F 63 °F 29.9 in Calm     75% 0 in 0 W/m2
03:48 71.2 °F 63 °F 29.9 in ESE 0.9 mph 2 mph 75% 0 in 0 W/m2
03:53 71.1 °F 63.1 °F 29.9 in Calm     76% 0 in 0 W/m2
03:58 71.1 °F 63.1 °F 29.9 in Calm     76% 0 in 0 W/m2
04:03 71.1 °F 63.1 °F 29.9 in ESE 0.9 mph 1 mph 76% 0 in 0 W/m2
04:08 71.1 °F 63.1 °F 29.9 in Calm   2 mph 76% 0 in 0 W/m2
04:13 71.2 °F 63.3 °F 29.9 in ESE 0.9 mph 2 mph 76% 0 in 0 W/m2
04:19 71.2 °F 63 °F 29.9 in Calm     75% 0 in 0 W/m2
04:24 71.2 °F 63 °F 29.9 in Calm     75% 0 in 0 W/m2
04:29 71.2 °F 63.3 °F 29.9 in Calm   1 mph 76% 0 in 0 W/m2
04:34 71.2 °F 63.3 °F 29.9 in ESE 0.9 mph 1 mph 76% 0 in 0 W/m2
04:39 71.2 °F 63.3 °F 29.9 in Calm   2 mph 76% 0 in 0 W/m2
04:44 71.1 °F 63.5 °F 29.9 in Calm   1 mph 77% 0 in 0 W/m2
04:49 71.1 °F 63.5 °F 29.9 in Calm   2 mph 77% 0 in 0 W/m2
04:54 71.1 °F 63.5 °F 29.9 in ESE 0.9 mph 2 mph 77% 0 in 0 W/m2
04:59 70.9 °F 63.3 °F 29.9 in ESE 0.9 mph 2 mph 77% 0 in 0 W/m2
05:04 70.9 °F 63.3 °F 29.9 in ESE 0.9 mph 1 mph 77% 0 in 0 W/m2
05:09 70.7 °F 63.5 °F 29.9 in Calm   2 mph 78% 0 in 0 W/m2
05:14 70.5 °F 63.3 °F 29.9 in Calm     78% 0 in 0 W/m2
05:19 70.5 °F 63.3 °F 29.9 in Calm   1 mph 78% 0 in 0 W/m2
05:24 70.3 °F 63.5 °F 29.9 in Calm     79% 0 in 0 W/m2
05:29 70.3 °F 63.5 °F 29.9 in Calm   1 mph 79% 0 in 0 W/m2
05:34 70.2 °F 63.3 °F 29.9 in Calm   1 mph 79% 0 in 0 W/m2
05:39 70.2 °F 63.3 °F 29.9 in Calm     79% 0 in 0 W/m2
05:44 70 °F 63.1 °F 29.9 in Calm     79% 0 in 0 W/m2
05:49 69.8 °F 63.3 °F 29.9 in Calm     80% 0 in 0 W/m2
05:54 69.6 °F 63.1 °F 29.9 in Calm     80% 0 in 0 W/m2
05:59 69.6 °F 63.5 °F 29.9 in Calm     81% 0 in 0 W/m2
06:04 69.4 °F 63.3 °F 29.9 in Calm     81% 0 in 0 W/m2
06:09 69.4 °F 63.3 °F 29.9 in Calm     81% 0 in 0 W/m2
06:14 69.3 °F 63.1 °F 29.9 in Calm     81% 0 in 0 W/m2
06:19 69.3 °F 63.1 °F 29.9 in Calm     81% 0 in 0 W/m2
06:24 69.3 °F 63.5 °F 29.9 in Calm     82% 0 in 5 W/m2
06:29 69.3 °F 63.1 °F 29.9 in Calm     81% 0 in 9 W/m2
06:34 69.3 °F 63.1 °F 29.9 in Calm     81% 0 in 11 W/m2
06:39 69.3 °F 63.1 °F 29.9 in Calm     81% 0 in 14 W/m2
06:44 69.3 °F 63.5 °F 29.9 in Calm     82% 0 in 16 W/m2
06:49 69.3 °F 63.5 °F 29.9 in Calm     82% 0 in 19 W/m2
06:54 69.3 °F 63.5 °F 29.9 in Calm     82% 0 in 25 W/m2
06:59 69.3 °F 63.5 °F 29.9 in Calm     82% 0 in 26 W/m2
07:04 69.3 °F 63.5 °F 29.9 in Calm     82% 0 in 30 W/m2
07:09 69.3 °F 63.5 °F 29.9 in Calm     82% 0 in 33 W/m2
07:14 69.4 °F 63.7 °F 29.9 in Calm     82% 0 in 35 W/m2
07:19 69.6 °F 63.9 °F 29.9 in Calm     82% 0 in 37 W/m2
07:24 70 °F 64.2 °F 29.9 in Calm     82% 0 in 40 W/m2
07:29 70.2 °F 64 °F 29.9 in Calm     81% 0 in 42 W/m2
07:34 70.3 °F 63.9 °F 29.9 in ESE 0.9 mph 2 mph 80% 0 in 44 W/m2
07:39 70.9 °F 64.4 °F 29.9 in ESE 0.9 mph 2 mph 80% 0 in 46 W/m2
07:44 71.1 °F 64.2 °F 29.9 in Calm     79% 0 in 47 W/m2
07:49 71.2 °F 64 °F 29.9 in ENE 0.9 mph 3 mph 78% 0 in 49 W/m2
07:54 71.8 °F 64.6 °F 29.9 in Calm   1 mph 78% 0 in 51 W/m2
07:59 72 °F 64.8 °F 29.9 in ENE 0.9 mph 2 mph 78% 0 in 83 W/m2
08:04 72.3 °F 64.8 °F 29.9 in Calm   1 mph 77% 0 in 67 W/m2
08:09 72.7 °F 64.8 °F 29.9 in NE 2 mph 4 mph 76% 0 in 62 W/m2
08:14 73 °F 64.6 °F 29.9 in NE 0.9 mph 3 mph 75% 0 in 62 W/m2
08:19 73.6 °F 64.8 °F 29.9 in Calm   2 mph 74% 0 in 62 W/m2
08:24 73.8 °F 64.9 °F 29.9 in ENE 2 mph 3 mph 74% 0 in 62 W/m2
08:29 74.3 °F 65.1 °F 29.9 in Calm   2 mph 73% 0 in 62 W/m2
08:34 74.8 °F 65.7 °F 29.9 in NE 0.9 mph 2 mph 73% 0 in 69 W/m2
08:40 75.4 °F 65.7 °F 29.9 in NNE 0.9 mph 1 mph 72% 0 in 70 W/m2
08:45 75.6 °F 65.5 °F 29.9 in ENE 0.9 mph 3 mph 71% 0 in 72 W/m2
08:50 75.9 °F 65.5 °F 29.9 in North 0.9 mph 2 mph 70% 0 in 84 W/m2
08:55 76.3 °F 65.3 °F 29.9 in ESE 2.9 mph 4 mph 69% 0 in 214 W/m2
09:00 76.5 °F 65.5 °F 29.9 in ENE 0.9 mph 4 mph 69% 0 in 271 W/m2
09:05 76.6 °F 65.7 °F 29.9 in ESE 2.9 mph 3 mph 69% 0 in 288 W/m2
09:10 76.6 °F 65.7 °F 29.9 in Calm   1 mph 69% 0 in 306 W/m2
09:15 76.6 °F 65.7 °F 29.9 in NE 2.9 mph 3 mph 69% 0 in 320 W/m2
09:20 76.8 °F 65.8 °F 29.9 in North 2 mph 3 mph 69% 0 in 332 W/m2
09:25 76.8 °F 65.5 °F 29.9 in ESE 0.9 mph 2 mph 68% 0 in 345 W/m2
09:30 77 °F 65.7 °F 29.9 in ENE 2.9 mph 3 mph 68% 0 in 359 W/m2
09:35 77.4 °F 66 °F 29.9 in East 0.9 mph 2 mph 68% 0 in 378 W/m2
09:40 77.7 °F 65.8 °F 29.9 in ENE 2.9 mph 4 mph 67% 0 in 320 W/m2
09:45 78.3 °F 66 °F 29.9 in ENE 0.9 mph 6 mph 66% 0 in 114 W/m2
09:50 78.6 °F 66.4 °F 29.9 in NE 0.9 mph 4 mph 66% 0 in 264 W/m2
09:55 79 °F 66.2 °F 29.9 in SE 2 mph 2 mph 65% 0 in 251 W/m2
10:00 79.3 °F 66.6 °F 29.9 in NE 4.9 mph 5 mph 65% 0 in 413 W/m2
10:05 79.5 °F 66.2 °F 29.9 in East 0.9 mph 3 mph 64% 0 in 369 W/m2
10:10 80.1 °F 66.4 °F 29.9 in ENE 4.9 mph 5 mph 63% 0 in 487 W/m2
10:15 80.2 °F 66.6 °F 29.9 in ESE 0.9 mph 2 mph 63% 0 in 468 W/m2
10:20 80.8 °F 66.6 °F 29.9 in ENE 2.9 mph 5 mph 62% 0 in 492 W/m2
10:25 81.1 °F 66.4 °F 29.9 in SE 4.9 mph 6 mph 61% 0 in 404 W/m2
10:30 81.1 °F 66.4 °F 29.9 in ENE 0.9 mph 3 mph 61% 0 in 503 W/m2
10:35 81.9 °F 67.1 °F 29.9 in NNE 0.9 mph 3 mph 61% 0 in 749 W/m2
10:40 82.6 °F 66.7 °F 29.9 in ESE 6 mph 6 mph 59% 0 in 508 W/m2
10:45 82.8 °F 66.9 °F 29.9 in ESE 2 mph 4 mph 59% 0 in 526 W/m2
10:50 82.8 °F 66.6 °F 29.9 in WNW 2 mph 6 mph 58% 0 in 671 W/m2
10:55 82.9 °F 67.1 °F 29.9 in NW 2 mph 2 mph 59% 0 in 605 W/m2
11:00 83.3 °F 66.9 °F 29.9 in East 2.9 mph 5 mph 58% 0 in 631 W/m2
11:06 83.8 °F 67.5 °F 29.9 in NW 2 mph 2 mph 58% 0 in 408 W/m2
11:11 84 °F 67.1 °F 29.9 in Calm   2 mph 57% 0 in 510 W/m2
11:16 84.4 °F 67.5 °F 29.9 in SE 2.9 mph 4 mph 57% 0 in 302 W/m2
11:21 84 °F 67.1 °F 29.9 in East 0.9 mph 5 mph 57% 0 in 338 W/m2
11:26 84 °F 67.1 °F 29.9 in NE 2 mph 6 mph 57% 0 in 619 W/m2
11:31 84 °F 67.1 °F 29.9 in East 2.9 mph 4 mph 57% 0 in 380 W/m2
11:36 84.2 °F 67.3 °F 29.9 in NNW 0.9 mph 3 mph 57% 0 in 294 W/m2
11:41 84.4 °F 66.9 °F 29.9 in ESE 0.9 mph 2 mph 56% 0 in 281 W/m2
11:46 84.6 °F 67.1 °F 29.9 in NNW 2.9 mph 3 mph 56% 0 in 283 W/m2
11:51 84.7 °F 67.3 °F 29.9 in East 0.9 mph 3 mph 56% 0 in 334 W/m2
11:56 84.9 °F 67.5 °F 29.9 in NNW 2 mph 4 mph 56% 0 in 295 W/m2
12:01 84.9 °F 67.5 °F 29.9 in NE 2 mph 5 mph 56% 0 in 285 W/m2
12:06 85.1 °F 67.6 °F 29.9 in ESE 2.9 mph 3 mph 56% 0 in 287 W/m2
12:11 85.3 °F 67.3 °F 29.9 in ENE 4.9 mph 5 mph 55% 0 in 315 W/m2
12:16 85.3 °F 66.7 °F 29.9 in East 2.9 mph 5 mph 54% 0 in 323 W/m2
12:22 85.5 °F 66.9 °F 29.9 in East 2.9 mph 4 mph 54% 0 in 388 W/m2
12:27 85.6 °F 67.1 °F 29.9 in NE 4 mph 4 mph 54% 0 in 341 W/m2
12:32 85.8 °F 66.7 °F 29.9 in NNE 2 mph 2 mph 53% 0 in 341 W/m2
12:37 86.2 °F 67.1 °F 29.9 in NE 2.9 mph 3 mph 53% 0 in 302 W/m2
12:42 86.4 °F 67.3 °F 29.9 in NE 0.9 mph 1 mph 53% 0 in 309 W/m2
12:47 86.5 °F 66.7 °F 29.9 in NE 2 mph 4 mph 52% 0 in 306 W/m2
12:52 86.7 °F 66.9 °F 29.9 in ENE 0.9 mph 2 mph 52% 0 in 304 W/m2
12:57 86.9 °F 66.6 °F 29.9 in East 2.9 mph 6 mph 51% 0 in 366 W/m2
13:02 87.3 °F 66.4 °F 29.9 in Calm   1 mph 50% 0 in 408 W/m2
13:07 88 °F 66.9 °F 29.9 in ENE 2 mph 6 mph 50% 0 in 599 W/m2
13:13 88.3 °F 66.7 °F 29.9 in Calm   2 mph 49% 0 in 886 W/m2
13:18 88.5 °F 66.9 °F 29.9 in WNW 0.9 mph 1 mph 49% 0 in 178 W/m2
13:23 88.7 °F 65.8 °F 29.9 in ENE 2.9 mph 5 mph 47% 0 in 840 W/m2
13:28 89.2 °F 66.4 °F 29.9 in ENE 0.9 mph 2 mph 47% 0 in 791 W/m2
13:33 89.8 °F 67.5 °F 29.9 in SE 0.9 mph 2 mph 48% 0 in 775 W/m2
13:38 90.1 °F 67.1 °F 29.9 in Calm   7 mph 47% 0 in 772 W/m2
13:43 90.9 °F 67.3 °F 29.9 in ESE 2.9 mph 4 mph 46% 0 in 773 W/m2
13:48 91.2 °F 66.9 °F 29.9 in NNW 2.9 mph 3 mph 45% 0 in 777 W/m2
13:53 91 °F 66 °F 29.9 in NNE 0.9 mph 3 mph 44% 0 in 780 W/m2
13:58 91.2 °F 66.2 °F 29.9 in SSE 0.9 mph 4 mph 44% 0 in 770 W/m2
14:03 91.2 °F 66.2 °F 29.9 in East 2.9 mph 4 mph 44% 0 in 766 W/m2
14:08 91.2 °F 66.2 °F 29.9 in East 2.9 mph 5 mph 44% 0 in 765 W/m2
14:13 91.6 °F 65.8 °F 29.9 in ESE 0.9 mph 4 mph 43% 0 in 758 W/m2
14:18 91.8 °F 66.7 °F 29.9 in SW 0.9 mph 2 mph 44% 0 in 761 W/m2
14:23 91.8 °F 66 °F 29.9 in Calm   3 mph 43% 0 in 763 W/m2
14:29 92.5 °F 66.7 °F 29.9 in East 2 mph 4 mph 43% 0 in 759 W/m2
14:34 92.8 °F 66.4 °F 29.9 in ENE 2 mph 2 mph 42% 0 in 758 W/m2
14:39 92.8 °F 67.1 °F 29.9 in NNE 0.9 mph 2 mph 43% 0 in 756 W/m2
14:44 93 °F 66.6 °F 29.9 in NNW 2 mph 3 mph 42% 0 in 745 W/m2
14:49 93 °F 66.6 °F 29.9 in Calm   1 mph 42% 0 in 747 W/m2
14:54 93.6 °F 67.1 °F 29.9 in WNW 2 mph 2 mph 42% 0 in 735 W/m2
14:59 93.9 °F 66.6 °F 29.9 in ENE 0.9 mph 5 mph 41% 0 in 726 W/m2
15:04 93.9 °F 66.6 °F 29.9 in SW 0.9 mph 5 mph 41% 0 in 721 W/m2
15:09 94.1 °F 66 °F 29.9 in NE 0.9 mph 4 mph 40% 0 in 728 W/m2
15:14 94.5 °F 67.1 °F 29.9 in ENE 2 mph 3 mph 41% 0 in 729 W/m2
15:19 94.6 °F 66.6 °F 29.9 in NW 2.9 mph 3 mph 40% 0 in 729 W/m2
15:24 94.6 °F 66.6 °F 29.9 in East 4 mph 4 mph 40% 0 in 712 W/m2
15:29 94.8 °F 66 °F 29.9 in ENE 2.9 mph 7 mph 39% 0 in 737 W/m2
15:34 95.2 °F 65.5 °F 29.9 in ENE 0.9 mph 2 mph 38% 0 in 689 W/m2
15:39 95.4 °F 66.6 °F 29.8 in East 2 mph 7 mph 39% 0 in 162 W/m2
15:44 95.5 °F 65.8 °F 29.8 in ESE 2.9 mph 5 mph 38% 0 in 701 W/m2
15:49 95.5 °F 65.8 °F 29.8 in West 0.9 mph 4 mph 38% 0 in 700 W/m2
15:54 95.5 °F 66.6 °F 29.8 in ESE 2 mph 3 mph 39% 0 in 691 W/m2
15:59 95.5 °F 65.8 °F 29.8 in West 2 mph 4 mph 38% 0 in 689 W/m2
16:04 95.5 °F 65.8 °F 29.8 in East 0.9 mph 4 mph 38% 0 in 686 W/m2
16:09 96.1 °F 65.7 °F 29.8 in North 2 mph 3 mph 37% 0 in 686 W/m2
16:14 96.3 °F 65.7 °F 29.8 in East 2 mph 3 mph 37% 0 in 663 W/m2
16:19 96.6 °F 64.4 °F 29.8 in ENE 2.9 mph 7 mph 35% 0 in 671 W/m2
16:24 96.6 °F 64.4 °F 29.8 in NW 0.9 mph 8 mph 35% 0 in 689 W/m2
16:29 96.3 °F 64.2 °F 29.8 in East 10.1 mph 10 mph 35% 0 in 292 W/m2
16:34 94.8 °F 64.4 °F 29.8 in WNW 4.9 mph 9 mph 37% 0 in 199 W/m2
16:39 92.1 °F 62.8 °F 29.9 in East 6.9 mph 7 mph 38% 0 in 221 W/m2
16:44 90.1 °F 62.6 °F 29.9 in NNW 2.9 mph 5 mph 40% 0 in 279 W/m2
16:49 88.9 °F 62.1 °F 29.9 in East 2.9 mph 10 mph 41% 0 in 141 W/m2
16:54 87.6 °F 63 °F 29.9 in East 14.1 mph 14 mph 44% 0 in 139 W/m2
16:59 86.4 °F 63.1 °F 29.9 in South 10.1 mph 15 mph 46% 0 in 123 W/m2
17:04 85.3 °F 62.2 °F 29.9 in South 6 mph 11 mph 46% 0 in 93 W/m2
17:09 84.7 °F 62.2 °F 29.9 in East 4.9 mph 9 mph 47% 0 in 156 W/m2
17:15 85.1 °F 62.6 °F 29.8 in NNE 2.9 mph 3 mph 47% 0 in 541 W/m2
17:20 86.4 °F 62.4 °F 29.8 in NE 6 mph 9 mph 45% 0 in 527 W/m2
17:25 87.6 °F 62.4 °F 29.8 in ENE 0.9 mph 4 mph 43% 0 in 499 W/m2
17:30 88.9 °F 60.8 °F 29.8 in NNW 2.9 mph 11 mph 39% 0 in 501 W/m2
17:35 89.8 °F 60.8 °F 29.8 in North 2 mph 9 mph 38% 0 in 425 W/m2
17:40 90.1 °F 61.2 °F 29.8 in NW 2 mph 11 mph 38% 0 in 223 W/m2
17:45 90.7 °F 60.8 °F 29.8 in West 2.9 mph 3 mph 37% 0 in 485 W/m2
17:50 91.2 °F 61.3 °F 29.8 in NE 0.9 mph 8 mph 37% 0 in 475 W/m2
17:55 91.9 °F 61.9 °F 29.8 in East 2 mph 2 mph 37% 0 in 427 W/m2
18:00 92.3 °F 62.2 °F 29.8 in ENE 0.9 mph 3 mph 37% 0 in 441 W/m2
18:06 92.1 °F 61.3 °F 29.8 in SSW 2 mph 2 mph 36% 0 in 121 W/m2
18:11 91.6 °F 60.8 °F 29.8 in ENE 2 mph 2 mph 36% 0 in 134 W/m2
18:16 91 °F 60.4 °F 29.8 in NNE 2 mph 3 mph 36% 0 in 276 W/m2
18:21 91.2 °F 61.3 °F 29.8 in NE 0.9 mph 1 mph 37% 0 in 327 W/m2
18:26 91.4 °F 61.5 °F 29.8 in ESE 2 mph 3 mph 37% 0 in 244 W/m2
18:31 91 °F 60.4 °F 29.8 in ENE 2 mph 4 mph 36% 0 in 123 W/m2
18:36 90.3 °F 61.3 °F 29.8 in SE 2.9 mph 4 mph 38% 0 in 123 W/m2
18:41 89.4 °F 60.4 °F 29.8 in East 2 mph 6 mph 38% 0 in 128 W/m2
18:46 88.9 °F 60.8 °F 29.8 in ENE 0.9 mph 4 mph 39% 0 in 225 W/m2
18:51 88.9 °F 61.5 °F 29.8 in Calm   1 mph 40% 0 in 250 W/m2
18:56 89.1 °F 61.5 °F 29.8 in East 0.9 mph 3 mph 40% 0 in 132 W/m2
19:01 89.1 °F 62.2 °F 29.8 in Calm   1 mph 41% 0 in 116 W/m2
19:06 88.9 °F 62.1 °F 29.8 in East 0.9 mph 3 mph 41% 0 in 104 W/m2
19:11 88.5 °F 61.9 °F 29.8 in Calm   1 mph 41% 0 in 105 W/m2
19:16 88.2 °F 62.2 °F 29.8 in Calm     42% 0 in 97 W/m2
19:21 88 °F 62.1 °F 29.8 in Calm   3 mph 42% 0 in 72 W/m2
19:26 87.6 °F 63 °F 29.8 in NE 0.9 mph 1 mph 44% 0 in 62 W/m2
19:31 87.4 °F 63.5 °F 29.8 in NE 0.9 mph 3 mph 45% 0 in 100 W/m2
19:36 87.1 °F 62.6 °F 29.8 in Calm     44% 0 in 88 W/m2
19:41 86.7 °F 62.2 °F 29.8 in Calm     44% 0 in 95 W/m2
19:46 86.5 °F 62.6 °F 29.8 in Calm   1 mph 45% 0 in 77 W/m2
19:51 86.4 °F 63.1 °F 29.8 in Calm     46% 0 in 70 W/m2
19:57 86.2 °F 63 °F 29.8 in Calm   1 mph 46% 0 in 60 W/m2
20:02 85.8 °F 63.9 °F 29.8 in Calm     48% 0 in 42 W/m2
20:07 85.5 °F 63.5 °F 29.8 in Calm   1 mph 48% 0 in 28 W/m2
20:12 84.9 °F 63.7 °F 29.8 in Calm     49% 0 in 21 W/m2
20:17 84.4 °F 61.9 °F 29.8 in East 2 mph 6 mph 47% 0 in 18 W/m2
20:22 84.2 °F 62.4 °F 29.8 in NNE 2 mph 3 mph 48% 0 in 14 W/m2
20:27 84 °F 62.2 °F 29.8 in Calm   3 mph 48% 0 in 12 W/m2
20:32 83.7 °F 62.4 °F 29.8 in East 2 mph 3 mph 49% 0 in 9 W/m2
20:37 83.3 °F 63.3 °F 29.8 in ENE 0.9 mph 9 mph 51% 0 in 7 W/m2
20:42 83.1 °F 64.2 °F 29.8 in East 0.9 mph 4 mph 53% 0 in 5 W/m2
20:47 82.8 °F 64.4 °F 29.8 in NE 0.9 mph 5 mph 54% 0 in 0 W/m2
20:52 82.6 °F 64.8 °F 29.8 in SE 0.9 mph 3 mph 55% 0 in 0 W/m2
20:57 82.2 °F 64.4 °F 29.8 in ESE 0.9 mph 1 mph 55% 0 in 0 W/m2
21:02 82 °F 64.8 °F 29.8 in ENE 0.9 mph 3 mph 56% 0 in 0 W/m2
21:07 81.9 °F 67.6 °F 29.9 in SSE 2 mph 2 mph 62% 0.02 in 0 W/m2
21:12 81 °F 70.2 °F 29.9 in South 0.9 mph 2 mph 70% 0.04 in 0 W/m2
21:17 78.6 °F 66.4 °F 29.9 in NW 4 mph 5 mph 66% 0.04 in 0 W/m2
21:22 78.1 °F 70 °F 29.9 in SW 0.9 mph 2 mph 76% 0.04 in 0 W/m2
21:27 76.8 °F 69.4 °F 29.9 in Calm   5 mph 78% 0.04 in 0 W/m2
21:32 75.9 °F 69.3 °F 29.9 in Calm   1 mph 80% 0.04 in 0 W/m2
21:37 75 °F 68.7 °F 29.9 in Calm   2 mph 81% 0.04 in 0 W/m2
21:42 74.3 °F 68.4 °F 29.9 in South 2 mph 4 mph 82% 0.04 in 0 W/m2
21:47 73.8 °F 68.5 °F 29.9 in SSE 2.9 mph 4 mph 84% 0.04 in 0 W/m2
21:52 73.2 °F 68.7 °F 29.9 in WSW 0.9 mph 2 mph 86% 0.05 in 0 W/m2
21:57 73.2 °F 69.1 °F 29.9 in WSW 0.9 mph 1 mph 87% 0.08 in 0 W/m2
22:02 73 °F 69.3 °F 29.9 in WSW 4 mph 4 mph 88% 0.09 in 0 W/m2
22:07 73 °F 68.9 °F 29.9 in South 2 mph 4 mph 87% 0.06 in 0 W/m2
22:12 72.9 °F 69.1 °F 29.9 in West 2 mph 3 mph 88% 0.05 in 0 W/m2
22:17 72.5 °F 68.7 °F 29.9 in West 2.9 mph 4 mph 88% 0.05 in 0 W/m2
22:22 72.1 °F 68.7 °F 29.9 in SW 2 mph 2 mph 89% 0.05 in 0 W/m2
22:27 72.1 °F 69.1 °F 29.9 in WSW 0.9 mph 3 mph 90% 0.05 in 0 W/m2
22:33 71.8 °F 68.4 °F 29.9 in SSW 2 mph 2 mph 89% 0.05 in 0 W/m2
22:38 71.8 °F 68.7 °F 29.9 in SSW 0.9 mph 2 mph 90% 0.05 in 0 W/m2
22:43 71.8 °F 68.7 °F 29.9 in SW 0.9 mph 2 mph 90% 0.05 in 0 W/m2
22:48 71.4 °F 68.4 °F 29.9 in SW 0.9 mph 3 mph 90% 0.05 in 0 W/m2
22:53 71.4 °F 68.7 °F 29.9 in SW 0.9 mph 1 mph 91% 0.04 in 0 W/m2
22:58 71.2 °F 68.5 °F 29.9 in Calm   3 mph 91% 0.01 in 0 W/m2
23:03 71.1 °F 68.4 °F 29.9 in North 0.9 mph 3 mph 91% 0 in 0 W/m2
23:08 71.2 °F 68.5 °F 29.9 in Calm   2 mph 91% 0 in 0 W/m2
23:13 71.2 °F 68.5 °F 29.9 in South 0.9 mph 2 mph 91% 0 in 0 W/m2
23:18 71.1 °F 68.4 °F 29.9 in Calm   2 mph 91% 0 in 0 W/m2
23:23 70.9 °F 68.2 °F 29.9 in Calm   4 mph 91% 0 in 0 W/m2
23:28 70.5 °F 67.8 °F 29.9 in South 0.9 mph 3 mph 91% 0 in 0 W/m2
23:33 70.5 °F 67.8 °F 29.9 in West 0.9 mph 2 mph 91% 0 in 0 W/m2
23:38 70.5 °F 67.8 °F 29.9 in NW 0.9 mph 4 mph 91% 0 in 0 W/m2
23:43 70.7 °F 67.6 °F 29.9 in NW 2 mph 6 mph 90% 0 in 0 W/m2
23:48 70.9 °F 67.8 °F 29.9 in SSW 2 mph 3 mph 90% 0 in 0 W/m2
23:53 70.7 °F 67.6 °F 29.9 in SSW 0.9 mph 5 mph 90% 0 in 0 W/m2
23:58 70.5 °F 67.5 °F 29.9 in SSW 0.9 mph 2 mph 90% 0 in 0 W/m2
Juneau County Weather
Compliments of Weather Underground - 4 mb